EW5401 Weather Reports


Display with metric or nautical units.
time (UTC)temp
F
wind
direction
speed
MPH
gust
MPH
rain 1hr
in
rain 24hr
in
rain mn
in
humidity
%
barometer
mb
20200331173114 44 77 1.0 4.0 0.00 0.13 0.07 69 1015.7
20200331171538 44 108 0.0 7.0 0.00 0.13 0.07 70 1015.7
20200331170054 44 311 3.0 5.0 0.00 0.13 0.07 68 1015.9
20200331164559 44 106 3.0 4.0 0.00 0.13 0.07 69 1015.8
20200331163044 44 182 4.0 6.0 0.00 0.13 0.07 69 1016.0
20200331161547 43 82 1.0 4.0 0.00 0.13 0.07 73 1015.9
20200331160035 42 28 2.0 4.0 0.00 0.13 0.07 74 1016.1
20200331154518 42 77 1.0 6.0 0.00 0.14 0.07 72 1016.5
20200331153019 42 360 3.0 7.0 0.00 0.14 0.07 72 1016.5
20200331151517 41 296 2.0 8.0 0.00 0.14 0.07 75 1016.7
20200331150041 41 89 3.0 10.0 0.00 0.14 0.07 75 1017.0
20200331144518 40 360 1.0 8.0 0.00 0.14 0.07 77 1017.0
20200331143035 40 117 3.0 6.0 0.00 0.14 0.07 78 1017.4
20200331141506 39 119 5.0 8.0 0.00 0.14 0.07 79 1017.6
20200331140003 38 121 3.0 7.0 0.00 0.14 0.07 81 1017.8
20200331134839 38 102 0.0 3.0 0.00 0.14 0.07 86 1017.9
20200331133102 37 123 2.0 5.0 0.00 0.14 0.07 88 1017.7
20200331131657 36 98 1.0 6.0 0.00 0.14 0.07 91 1017.9
20200331130116 36 109 0.0 2.0 0.00 0.14 0.07 93 1017.9
20200331124634 36 80 1.0 4.0 0.00 0.14 0.07 93 1018.0
20200331123240 35 5 0.0 2.0 0.00 0.14 0.07 94 1018.2
20200331121642 35 5 0.0 0.0 0.00 0.14 0.07 95 1018.1
20200331120137 35 5 0.0 1.0 0.00 0.14 0.07 95 1018.2
20200331114608 35 5 0.0 3.0 0.00 0.14 0.07 95 1018.1
20200331113051 35 87 0.0 3.0 0.00 0.14 0.07 96 1017.7
20200331111612 35 348 0.0 0.0 0.00 0.14 0.07 96 1017.6
20200331110116 35 348 0.0 0.0 0.00 0.14 0.07 96 1017.5
20200331104630 35 348 0.0 3.0 0.00 0.14 0.07 96 1017.3
20200331103129 34 344 0.0 0.0 0.00 0.14 0.07 96 1017.1
20200331101610 34 344 0.0 0.0 0.00 0.14 0.07 96 1016.9
20200331100054 34 344 0.0 0.0 0.00 0.14 0.07 95 1016.7
20200331094549 34 344 0.0 0.0 0.00 0.14 0.07 95 1016.4
20200331093137 34 344 0.0 0.0 0.01 0.14 0.07 95 1016.3
20200331091545 34 344 0.0 0.0 0.01 0.14 0.07 95 1016.2
20200331090055 34 344 0.0 0.0 0.01 0.14 0.07 95 1016.1
20200331083045 35 344 0.0 1.0 0.01 0.13 0.06 95 1016.1
20200331081617 35 344 0.0 1.0 0.01 0.13 0.06 94 1016.2
20200331080024 35 344 0.0 1.0 0.01 0.13 0.06 94 1016.2
20200331074522 35 344 0.0 4.0 0.01 0.12 0.05 94 1016.2
20200331073110 35 76 1.0 3.0 0.02 0.12 0.05 94 1016.2
20200331071549 35 76 0.0 2.0 0.02 0.12 0.05 94 1016.2
20200331070036 35 74 1.0 4.0 0.03 0.12 0.05 93 1016.1
20200331064528 36 79 2.0 5.0 0.03 0.11 0.04 93 1016.1
20200331063015 36 28 1.0 3.0 0.02 0.10 0.03 92 1016.1
20200331061512 36 80 1.0 3.0 0.02 0.10 0.03 92 1016.1
20200331060034 37 62 1.0 3.0 0.02 0.09 0.02 92 1016.1
20200331054512 37 51 1.0 3.0 0.01 0.09 0.01 91 1016.1
20200331053014 37 22 2.0 6.0 0.01 0.09 0.01 91 1016.0
20200331051507 37 36 1.0 4.0 0.01 0.09 0.01 90 1016.1
20200331050004 38 65 0.0 3.0 0.00 0.08 0.00 90 1016.0
20200331044502 38 69 1.0 5.0 0.00 0.08 0.00 90 1015.9
20200331043148 38 59 1.0 6.0 0.00 0.08 0.00 89 1015.9
20200331043004 38 74 1.0 6.0 0.00 0.08 0.00 89 1015.9
20200331041622 38 40 2.0 5.0 0.00 0.08 0.00 89 1015.7
20200331040202 38 57 2.0 5.0 0.00 0.08 0.00 88 1015.6
20200331034607 38 67 2.0 5.0 0.00 0.08 0.08 88 1015.6
20200331033116 39 311 1.0 8.0 0.00 0.08 0.08 88 1015.8
20200331031622 39 38 3.0 6.0 0.00 0.08 0.08 89 1015.8
20200331030241 39 76 3.0 9.0 0.00 0.08 0.08 88 1015.8
20200331024851 39 80 3.0 6.0 0.00 0.08 0.08 88 1015.9
20200331023224 39 77 2.0 8.0 0.00 0.08 0.08 89 1016.0
20200331021558 39 74 3.0 8.0 0.00 0.08 0.08 89 1016.0
20200331020106 39 67 3.0 7.0 0.00 0.08 0.08 89 1015.7
20200331014617 40 80 2.0 6.0 0.00 0.08 0.08 90 1015.6
20200331013112 40 175 2.0 4.0 0.00 0.08 0.08 90 1015.6
20200331011602 40 81 1.0 4.0 0.00 0.08 0.08 91 1015.3
20200331010119 40 355 1.0 5.0 0.00 0.08 0.08 91 1015.3
20200331004549 40 31 1.0 6.0 0.00 0.08 0.08 91 1015.1
20200331003118 40 355 2.0 4.0 0.00 0.08 0.08 91 1015.0
20200331001556 40 360 3.0 8.0 0.00 0.08 0.08 91 1014.7
20200331000125 40 14 2.0 4.0 0.00 0.08 0.08 91 1014.5
20200330234639 40 355 1.0 5.0 0.00 0.08 0.08 91 1014.4
20200330233113 40 322 1.0 5.0 0.00 0.08 0.08 91 1014.2
20200330231600 41 319 1.0 4.0 0.00 0.08 0.08 91 1014.1
20200330230201 41 71 1.0 3.0 0.00 0.08 0.08 91 1013.7
20200330224548 41 283 2.0 4.0 0.01 0.11 0.08 91 1013.6
20200330223044 41 108 2.0 6.0 0.01 0.11 0.08 91 1013.5
20200330221533 41 194 2.0 5.0 0.01 0.11 0.08 91 1013.2
20200330220048 41 214 4.0 7.0 0.01 0.11 0.08 91 1013.0
20200330214602 42 328 1.0 6.0 0.00 0.10 0.07 92 1012.8
20200330213121 42 335 1.0 5.0 0.00 0.10 0.07 92 1012.8
20200330211629 42 255 2.0 5.0 0.01 0.10 0.07 92 1012.8
20200330210033 42 328 0.0 1.0 0.02 0.10 0.07 92 1012.8
20200330204601 41 328 0.0 4.0 0.02 0.10 0.07 91 1012.8
20200330201538 42 355 1.0 3.0 0.03 0.09 0.06 92 1012.4
20200330200040 42 301 2.0 4.0 0.02 0.08 0.05 90 1012.5
20200330194558 42 321 1.0 4.0 0.02 0.08 0.05 91 1012.5
20200330193125 41 166 4.0 8.0 0.01 0.07 0.04 90 1012.3
20200330191540 41 269 4.0 8.0 0.00 0.06 0.03 89 1012.6
20200330190023 41 202 1.0 7.0 0.00 0.06 0.03 90 1012.6
20200330184600 41 244 3.0 6.0 0.01 0.07 0.03 91 1012.6
20200330183030 41 246 2.0 6.0 0.01 0.07 0.03 91 1012.7
20200330181601 41 317 2.0 5.0 0.01 0.07 0.03 90 1012.9
20200330180049 41 226 4.0 7.0 0.01 0.07 0.03 89 1013.0
20200330174528 42 246 1.0 6.0 0.00 0.06 0.02 89 1013.0